| time (UTC) | temp C | wind direction | speed KPH | gust KPH | rain 1hr cm | rain 24hr cm | rain mn cm | humidity % | barometer mb |
| 20260510164526 | 26 | 144 | 11.3 | 24.1 | 0.00 | 0.00 | 0.00 | 70 | 1011.3 |
| 20260510164022 | 26 | 107 | 14.5 | 24.1 | 0.00 | 0.00 | 0.00 | 70 | 1011.3 |
| 20260510163522 | 26 | 123 | 16.1 | 24.1 | 0.00 | 0.00 | 0.00 | 68 | 1011.2 |
| 20260510163021 | 27 | 134 | 8.0 | 25.7 | 0.00 | 0.00 | 0.00 | 68 | 1011.2 |
| 20260510162521 | 26 | 171 | 14.5 | 24.1 | 0.00 | 0.00 | 0.00 | 69 | 1011.3 |
| 20260510162019 | 26 | 138 | 14.5 | 27.4 | 0.00 | 0.00 | 0.00 | 70 | 1011.2 |
| 20260510161519 | 26 | 130 | 14.5 | 27.4 | 0.00 | 0.00 | 0.00 | 70 | 1011.2 |
| 20260510161018 | 26 | 360 | 12.9 | 25.7 | 0.00 | 0.00 | 0.00 | 68 | 1011.1 |
| 20260510160518 | 26 | 152 | 8.0 | 24.1 | 0.00 | 0.00 | 0.00 | 68 | 1011.0 |
| 20260510160021 | 26 | 146 | 14.5 | 24.1 | 0.00 | 0.00 | 0.00 | 68 | 1011.1 |
| 20260510155516 | 26 | 125 | 8.0 | 24.1 | 0.00 | 0.00 | 0.00 | 68 | 1011.0 |
| 20260510155013 | 26 | 159 | 11.3 | 20.9 | 0.00 | 0.00 | 0.00 | 70 | 1011.0 |
| 20260510154511 | 26 | 125 | 12.9 | 20.9 | 0.00 | 0.00 | 0.00 | 70 | 1011.1 |
| 20260510154011 | 26 | 127 | 9.7 | 17.7 | 0.00 | 0.00 | 0.00 | 70 | 1010.9 |
| 20260510153509 | 25 | 130 | 6.4 | 16.1 | 0.00 | 0.00 | 0.00 | 70 | 1010.9 |
| 20260510153008 | 25 | 168 | 9.7 | 16.1 | 0.00 | 0.00 | 0.00 | 71 | 1010.9 |
| 20260510152506 | 25 | 175 | 1.6 | 14.5 | 0.00 | 0.00 | 0.00 | 72 | 1010.8 |
| 20260510152004 | 25 | 184 | 4.8 | 14.5 | 0.00 | 0.00 | 0.00 | 73 | 1010.7 |
| 20260510151504 | 25 | 157 | 9.7 | 14.5 | 0.00 | 0.00 | 0.00 | 72 | 1010.6 |
| 20260510151002 | 25 | 176 | 3.2 | 11.3 | 0.00 | 0.00 | 0.00 | 73 | 1010.6 |
| 20260510150601 | 25 | 173 | 6.4 | 11.3 | 0.00 | 0.00 | 0.00 | 74 | 1010.6 |
| 20260510150100 | 25 | 360 | 1.6 | 8.0 | 0.00 | 0.00 | 0.00 | 74 | 1010.5 |
| 20260510145559 | 25 | 206 | 1.6 | 9.7 | 0.00 | 0.00 | 0.00 | 74 | 1010.6 |
| 20260510145059 | 24 | 217 | 3.2 | 16.1 | 0.00 | 0.00 | 0.00 | 75 | 1010.6 |
| 20260510144558 | 25 | 161 | 4.8 | 14.5 | 0.00 | 0.00 | 0.00 | 75 | 1010.5 |
| 20260510144059 | 24 | 186 | 1.6 | 14.5 | 0.00 | 0.00 | 0.00 | 77 | 1010.5 |
| 20260510143555 | 24 | 192 | 6.4 | 14.5 | 0.00 | 0.00 | 0.00 | 77 | 1010.5 |
| 20260510143104 | 24 | 203 | 4.8 | 16.1 | 0.00 | 0.00 | 0.00 | 78 | 1010.5 |
| 20260510142553 | 23 | 219 | 8.0 | 16.1 | 0.00 | 0.00 | 0.00 | 78 | 1010.4 |
| 20260510142052 | 23 | 251 | 9.7 | 16.1 | 0.00 | 0.00 | 0.00 | 78 | 1010.4 |
| 20260510141555 | 23 | 203 | 3.2 | 9.7 | 0.00 | 0.00 | 0.00 | 79 | 1010.2 |
| 20260510141050 | 23 | 214 | 4.8 | 17.7 | 0.00 | 0.00 | 0.00 | 79 | 1010.2 |
| 20260510140548 | 23 | 360 | 6.4 | 19.3 | 0.00 | 0.00 | 0.00 | 80 | 1010.2 |
| 20260510140047 | 23 | 360 | 8.0 | 19.3 | 0.00 | 0.00 | 0.00 | 80 | 1010.1 |
| 20260510135545 | 22 | 360 | 12.9 | 19.3 | 0.00 | 0.00 | 0.00 | 81 | 1010.1 |
| 20260510135045 | 22 | 360 | 6.4 | 17.7 | 0.00 | 0.00 | 0.00 | 81 | 1010.1 |
| 20260510134544 | 22 | 360 | 9.7 | 17.7 | 0.00 | 0.00 | 0.00 | 81 | 1010.0 |
| 20260510134042 | 22 | 360 | 4.8 | 12.9 | 0.00 | 0.00 | 0.00 | 81 | 1010.2 |
| 20260510133544 | 22 | 360 | 4.8 | 12.9 | 0.00 | 0.00 | 0.00 | 81 | 1010.0 |
| 20260510133041 | 22 | 360 | 4.8 | 14.5 | 0.00 | 0.00 | 0.00 | 81 | 1010.0 |
| 20260510132539 | 22 | 360 | 8.0 | 14.5 | 0.00 | 0.00 | 0.00 | 81 | 1009.9 |
| 20260510132039 | 22 | 360 | 4.8 | 16.1 | 0.00 | 0.00 | 0.00 | 81 | 1009.8 |
| 20260510131538 | 22 | 360 | 4.8 | 16.1 | 0.00 | 0.00 | 0.00 | 81 | 1009.7 |
| 20260510131036 | 21 | 360 | 9.7 | 16.1 | 0.00 | 0.00 | 0.00 | 81 | 1009.6 |
| 20260510130536 | 21 | 360 | 8.0 | 17.7 | 0.00 | 0.00 | 0.00 | 82 | 1009.7 |
| 20260510130034 | 21 | 360 | 8.0 | 17.7 | 0.00 | 0.00 | 0.00 | 82 | 1009.4 |
| 20260510125536 | 21 | 360 | 6.4 | 14.5 | 0.00 | 0.38 | 0.00 | 82 | 1009.4 |
| 20260510125032 | 21 | 360 | 8.0 | 14.5 | 0.00 | 0.38 | 0.00 | 82 | 1009.5 |
| 20260510124533 | 21 | 360 | 6.4 | 9.7 | 0.00 | 0.38 | 0.00 | 82 | 1009.4 |
| 20260510124031 | 21 | 360 | 3.2 | 8.0 | 0.00 | 0.38 | 0.00 | 82 | 1009.6 |
| 20260510123529 | 21 | 360 | 3.2 | 8.0 | 0.00 | 0.38 | 0.00 | 82 | 1009.6 |
| 20260510123028 | 21 | 360 | 4.8 | 8.0 | 0.00 | 0.38 | 0.00 | 82 | 1009.4 |
| 20260510122525 | 21 | 360 | 3.2 | 8.0 | 0.00 | 0.38 | 0.00 | 82 | 1009.4 |
| 20260510122024 | 21 | 360 | 3.2 | 8.0 | 0.00 | 0.38 | 0.00 | 82 | 1009.3 |
| 20260510121523 | 21 | 360 | 4.8 | 12.9 | 0.00 | 0.38 | 0.00 | 82 | 1009.3 |
| 20260510121021 | 21 | 360 | 6.4 | 12.9 | 0.00 | 0.38 | 0.00 | 82 | 1009.1 |
| 20260510120521 | 21 | 360 | 6.4 | 16.1 | 0.00 | 0.38 | 0.00 | 82 | 1009.0 |
| 20260510120020 | 21 | 360 | 6.4 | 12.9 | 0.00 | 0.38 | 0.00 | 81 | 1009.0 |
| 20260510115519 | 21 | 360 | 4.8 | 12.9 | 0.00 | 0.38 | 0.00 | 81 | 1009.0 |
| 20260510115018 | 21 | 360 | 6.4 | 16.1 | 0.00 | 0.38 | 0.00 | 81 | 1009.1 |
| 20260510114520 | 21 | 360 | 8.0 | 16.1 | 0.00 | 0.38 | 0.00 | 81 | 1009.2 |
| 20260510114017 | 21 | 360 | 8.0 | 16.1 | 0.00 | 0.38 | 0.00 | 80 | 1009.2 |
| 20260510113516 | 21 | 360 | 6.4 | 14.5 | 0.00 | 0.38 | 0.00 | 80 | 1009.1 |
| 20260510113016 | 21 | 360 | 6.4 | 14.5 | 0.00 | 0.38 | 0.00 | 79 | 1009.1 |
| 20260510112515 | 21 | 360 | 6.4 | 14.5 | 0.00 | 0.38 | 0.00 | 79 | 1009.2 |
| 20260510112016 | 21 | 360 | 3.2 | 12.9 | 0.00 | 0.38 | 0.00 | 78 | 1009.1 |
| 20260510111516 | 21 | 360 | 1.6 | 12.9 | 0.00 | 0.38 | 0.00 | 78 | 1009.1 |
| 20260510111012 | 21 | 360 | 3.2 | 12.9 | 0.00 | 0.38 | 0.00 | 78 | 1009.0 |
| 20260510110517 | 21 | 360 | 3.2 | 12.9 | 0.00 | 0.38 | 0.00 | 78 | 1009.2 |
| 20260510110012 | 21 | 360 | 4.8 | 14.5 | 0.00 | 0.38 | 0.00 | 78 | 1009.2 |
| 20260510105511 | 21 | 360 | 4.8 | 14.5 | 0.00 | 0.38 | 0.00 | 77 | 1009.2 |
| 20260510105013 | 21 | 360 | 4.8 | 14.5 | 0.00 | 0.38 | 0.00 | 77 | 1009.2 |
| 20260510104510 | 21 | 360 | 6.4 | 14.5 | 0.00 | 0.38 | 0.00 | 77 | 1009.2 |
| 20260510104013 | 21 | 360 | 6.4 | 14.5 | 0.00 | 0.38 | 0.00 | 77 | 1009.3 |
| 20260510103509 | 21 | 360 | 6.4 | 14.5 | 0.00 | 0.38 | 0.00 | 76 | 1009.3 |
| 20260510103009 | 21 | 360 | 6.4 | 14.5 | 0.00 | 0.38 | 0.00 | 76 | 1009.4 |
| 20260510102509 | 21 | 360 | 6.4 | 12.9 | 0.00 | 0.38 | 0.00 | 76 | 1009.2 |
| 20260510102008 | 21 | 360 | 4.8 | 9.7 | 0.00 | 0.38 | 0.00 | 76 | 1009.2 |
| 20260510101511 | 21 | 360 | 4.8 | 9.7 | 0.00 | 0.38 | 0.00 | 76 | 1009.3 |
| 20260510101006 | 22 | 360 | 8.0 | 12.9 | 0.00 | 0.38 | 0.00 | 75 | 1009.4 |
| 20260510100508 | 22 | 360 | 6.4 | 12.9 | 0.00 | 0.38 | 0.00 | 75 | 1009.4 |
| 20260510100004 | 22 | 360 | 3.2 | 8.0 | 0.00 | 0.38 | 0.00 | 75 | 1009.2 |
| 20260510095504 | 22 | 360 | 3.2 | 8.0 | 0.00 | 0.38 | 0.00 | 75 | 1009.1 |
| 20260510095004 | 22 | 360 | 3.2 | 8.0 | 0.00 | 0.38 | 0.00 | 75 | 1009.1 |
| 20260510094502 | 22 | 360 | 3.2 | 9.7 | 0.00 | 0.38 | 0.00 | 75 | 1009.1 |
| 20260510094001 | 22 | 360 | 4.8 | 9.7 | 0.00 | 0.38 | 0.00 | 75 | 1009.2 |
| 20260510093600 | 22 | 360 | 4.8 | 9.7 | 0.00 | 0.38 | 0.00 | 74 | 1009.0 |
| 20260510093103 | 22 | 360 | 4.8 | 9.7 | 0.00 | 0.38 | 0.00 | 74 | 1009.0 |
| 20260510092559 | 22 | 360 | 4.8 | 12.9 | 0.00 | 0.38 | 0.00 | 74 | 1008.8 |
| 20260510092100 | 22 | 360 | 4.8 | 12.9 | 0.00 | 0.38 | 0.00 | 73 | 1008.8 |
| 20260510091600 | 22 | 360 | 6.4 | 12.9 | 0.00 | 0.38 | 0.00 | 73 | 1008.8 |
| 20260510091057 | 22 | 360 | 6.4 | 12.9 | 0.00 | 0.38 | 0.00 | 73 | 1008.9 |
| 20260510090556 | 22 | 360 | 6.4 | 9.7 | 0.00 | 0.38 | 0.00 | 72 | 1008.9 |
| 20260510090055 | 22 | 360 | 4.8 | 12.9 | 0.00 | 0.38 | 0.00 | 72 | 1008.8 |
| 20260510085557 | 22 | 360 | 4.8 | 12.9 | 0.00 | 0.38 | 0.00 | 72 | 1008.9 |
| 20260510085053 | 22 | 360 | 4.8 | 8.0 | 0.00 | 0.38 | 0.00 | 71 | 1008.9 |
| 20260510084555 | 23 | 360 | 3.2 | 8.0 | 0.00 | 0.38 | 0.00 | 71 | 1008.7 |
| 20260510084054 | 23 | 360 | 3.2 | 8.0 | 0.00 | 0.38 | 0.00 | 71 | 1008.8 |
| 20260510083552 | 23 | 360 | 3.2 | 8.0 | 0.00 | 0.38 | 0.00 | 71 | 1008.8 |
| 20260510083100 | 23 | 360 | 3.2 | 9.7 | 0.00 | 0.38 | 0.00 | 71 | 1008.7 |
| 20260510082551 | 23 | 360 | 1.6 | 9.7 | 0.00 | 0.38 | 0.00 | 71 | 1008.8 |
| 20260510082051 | 23 | 360 | 3.2 | 12.9 | 0.00 | 0.38 | 0.00 | 71 | 1008.8 |
| 20260510081551 | 23 | 360 | 3.2 | 12.9 | 0.00 | 0.38 | 0.00 | 70 | 1008.6 |
| 20260510081050 | 23 | 360 | 4.8 | 9.7 | 0.00 | 0.38 | 0.00 | 70 | 1008.7 |
| 20260510080549 | 23 | 360 | 3.2 | 9.7 | 0.00 | 0.38 | 0.00 | 70 | 1008.7 |
| 20260510080052 | 23 | 360 | 3.2 | 9.7 | 0.00 | 0.38 | 0.00 | 70 | 1008.7 |
| 20260510075548 | 23 | 360 | 4.8 | 9.7 | 0.00 | 0.38 | 0.00 | 70 | 1008.8 |
| 20260510075048 | 23 | 360 | 3.2 | 9.7 | 0.00 | 0.38 | 0.00 | 70 | 1008.7 |
| 20260510074548 | 23 | 360 | 4.8 | 9.7 | 0.00 | 0.38 | 0.00 | 70 | 1008.7 |
| 20260510074047 | 23 | 360 | 3.2 | 12.9 | 0.00 | 0.38 | 0.00 | 70 | 1008.6 |
| 20260510073546 | 23 | 360 | 4.8 | 14.5 | 0.00 | 0.38 | 0.00 | 70 | 1008.6 |
| 20260510073046 | 23 | 360 | 4.8 | 9.7 | 0.00 | 0.38 | 0.00 | 70 | 1008.5 |
| 20260510072546 | 23 | 360 | 4.8 | 17.7 | 0.00 | 0.38 | 0.00 | 70 | 1008.6 |
| 20260510072045 | 23 | 360 | 8.0 | 17.7 | 0.00 | 0.38 | 0.00 | 70 | 1008.7 |
| 20260510071553 | 23 | 360 | 4.8 | 9.7 | 0.00 | 0.38 | 0.00 | 70 | 1008.7 |
| 20260510071044 | 24 | 360 | 4.8 | 12.9 | 0.00 | 0.38 | 0.00 | 70 | 1008.7 |
| 20260510070544 | 24 | 360 | 6.4 | 12.9 | 0.00 | 0.38 | 0.00 | 70 | 1008.7 |
| 20260510070043 | 24 | 360 | 3.2 | 16.1 | 0.00 | 0.38 | 0.00 | 70 | 1008.8 |
| 20260510065543 | 24 | 360 | 6.4 | 16.1 | 0.00 | 0.38 | 0.00 | 70 | 1008.7 |
| 20260510065042 | 24 | 360 | 4.8 | 14.5 | 0.00 | 0.38 | 0.00 | 70 | 1008.8 |
| 20260510064541 | 24 | 360 | 3.2 | 14.5 | 0.00 | 0.38 | 0.00 | 70 | 1008.7 |
| 20260510064041 | 24 | 360 | 4.8 | 19.3 | 0.00 | 0.38 | 0.00 | 70 | 1008.6 |
| 20260510063540 | 24 | 360 | 8.0 | 19.3 | 0.00 | 0.38 | 0.00 | 70 | 1008.7 |
| 20260510063044 | 24 | 360 | 8.0 | 14.5 | 0.00 | 0.38 | 0.00 | 70 | 1008.8 |
| 20260510062539 | 25 | 360 | 4.8 | 14.5 | 0.00 | 0.38 | 0.00 | 70 | 1008.9 |
| 20260510062039 | 25 | 360 | 4.8 | 14.5 | 0.00 | 0.38 | 0.00 | 69 | 1008.8 |
| 20260510061546 | 25 | 360 | 6.4 | 17.7 | 0.00 | 0.38 | 0.00 | 69 | 1009.0 |
| 20260510061037 | 25 | 360 | 6.4 | 20.9 | 0.00 | 0.38 | 0.00 | 69 | 1008.9 |
| 20260510060538 | 25 | 360 | 9.7 | 20.9 | 0.00 | 0.38 | 0.00 | 69 | 1008.8 |
| 20260510060036 | 25 | 360 | 6.4 | 14.5 | 0.00 | 0.38 | 0.00 | 69 | 1008.8 |
| 20260510055535 | 25 | 360 | 6.4 | 14.5 | 0.00 | 0.38 | 0.00 | 69 | 1008.8 |
| 20260510055034 | 25 | 360 | 8.0 | 17.7 | 0.00 | 0.38 | 0.00 | 69 | 1008.9 |
| 20260510054534 | 25 | 360 | 9.7 | 17.7 | 0.00 | 0.38 | 0.00 | 69 | 1008.8 |
| 20260510054032 | 25 | 360 | 6.4 | 17.7 | 0.00 | 0.38 | 0.00 | 68 | 1008.6 |
| 20260510053531 | 25 | 360 | 8.0 | 19.3 | 0.00 | 0.38 | 0.00 | 68 | 1008.7 |
| 20260510053031 | 25 | 360 | 11.3 | 19.3 | 0.00 | 0.38 | 0.00 | 68 | 1008.6 |
| 20260510052533 | 25 | 360 | 6.4 | 16.1 | 0.00 | 0.38 | 0.00 | 68 | 1008.6 |
| 20260510052029 | 25 | 360 | 6.4 | 19.3 | 0.00 | 0.38 | 0.00 | 68 | 1008.5 |
| 20260510051528 | 25 | 360 | 11.3 | 20.9 | 0.00 | 0.38 | 0.00 | 68 | 1008.5 |
| 20260510051027 | 26 | 360 | 11.3 | 20.9 | 0.00 | 0.38 | 0.00 | 67 | 1008.5 |
| 20260510050527 | 26 | 360 | 8.0 | 17.7 | 0.00 | 0.38 | 0.00 | 67 | 1008.4 |
| 20260510050025 | 26 | 360 | 6.4 | 20.9 | 0.00 | 0.38 | 0.00 | 67 | 1008.3 |
| 20260510045527 | 26 | 360 | 9.7 | 20.9 | 0.00 | 0.38 | 0.38 | 67 | 1008.3 |
| 20260510045025 | 26 | 360 | 8.0 | 20.9 | 0.00 | 0.38 | 0.38 | 67 | 1008.3 |
| 20260510044524 | 26 | 360 | 8.0 | 20.9 | 0.00 | 0.38 | 0.38 | 66 | 1008.2 |
| 20260510044027 | 26 | 360 | 9.7 | 22.5 | 0.00 | 0.38 | 0.38 | 66 | 1008.2 |
| 20260510043526 | 26 | 360 | 6.4 | 22.5 | 0.00 | 0.38 | 0.38 | 66 | 1008.2 |
| 20260510043024 | 26 | 360 | 9.7 | 20.9 | 0.00 | 0.38 | 0.38 | 66 | 1008.2 |
| 20260510042523 | 26 | 360 | 9.7 | 25.7 | 0.00 | 0.38 | 0.38 | 65 | 1008.3 |
| 20260510042027 | 27 | 360 | 11.3 | 25.7 | 0.00 | 0.38 | 0.38 | 65 | 1008.2 |
| 20260510041523 | 27 | 360 | 9.7 | 27.4 | 0.00 | 0.38 | 0.38 | 65 | 1008.2 |
| 20260510041023 | 27 | 360 | 11.3 | 20.9 | 0.00 | 0.38 | 0.38 | 64 | 1008.1 |
| 20260510040523 | 27 | 360 | 9.7 | 19.3 | 0.00 | 0.38 | 0.38 | 64 | 1008.2 |
| 20260510040022 | 27 | 360 | 8.0 | 16.1 | 0.00 | 0.38 | 0.38 | 64 | 1007.9 |
| 20260510035523 | 27 | 360 | 8.0 | 14.5 | 0.00 | 0.38 | 0.38 | 64 | 1008.0 |
| 20260510035025 | 27 | 360 | 6.4 | 16.1 | 0.00 | 0.38 | 0.38 | 64 | 1007.9 |
| 20260510034522 | 27 | 360 | 8.0 | 16.1 | 0.00 | 0.38 | 0.38 | 64 | 1007.8 |
| 20260510034023 | 27 | 360 | 4.8 | 16.1 | 0.00 | 0.38 | 0.38 | 64 | 1007.9 |
| 20260510033521 | 27 | 360 | 6.4 | 16.1 | 0.00 | 0.38 | 0.38 | 64 | 1007.9 |
| 20260510033021 | 27 | 360 | 8.0 | 16.1 | 0.00 | 0.38 | 0.38 | 64 | 1007.8 |
| 20260510032521 | 27 | 360 | 6.4 | 17.7 | 0.00 | 0.38 | 0.38 | 64 | 1007.8 |
| 20260510032021 | 27 | 360 | 9.7 | 17.7 | 0.00 | 0.38 | 0.38 | 64 | 1007.8 |
| 20260510031536 | 27 | 360 | 9.7 | 17.7 | 0.00 | 0.38 | 0.38 | 64 | 1007.7 |
| 20260510031021 | 27 | 360 | 6.4 | 16.1 | 0.00 | 0.38 | 0.38 | 64 | 1007.8 |
| 20260510030520 | 27 | 360 | 8.0 | 16.1 | 0.00 | 0.38 | 0.38 | 64 | 1007.6 |
| 20260510030023 | 27 | 360 | 9.7 | 17.7 | 0.00 | 0.38 | 0.38 | 63 | 1007.6 |
| 20260510025520 | 28 | 360 | 6.4 | 17.7 | 0.00 | 0.38 | 0.38 | 63 | 1007.5 |
| 20260510025021 | 28 | 360 | 9.7 | 16.1 | 0.00 | 0.38 | 0.38 | 63 | 1007.5 |
| 20260510024533 | 28 | 360 | 6.4 | 16.1 | 0.00 | 0.38 | 0.38 | 63 | 1007.4 |
| 20260510024019 | 28 | 360 | 8.0 | 16.1 | 0.00 | 0.38 | 0.38 | 62 | 1007.3 |
| 20260510023520 | 28 | 360 | 9.7 | 16.1 | 0.00 | 0.38 | 0.38 | 62 | 1007.3 |
| 20260510023020 | 28 | 360 | 8.0 | 16.1 | 0.00 | 0.38 | 0.38 | 62 | 1007.2 |
| 20260510022522 | 28 | 360 | 8.0 | 14.5 | 0.00 | 0.38 | 0.38 | 61 | 1007.2 |
| 20260510022019 | 28 | 360 | 8.0 | 14.5 | 0.00 | 0.38 | 0.38 | 61 | 1007.2 |
| 20260510021522 | 28 | 360 | 8.0 | 14.5 | 0.00 | 0.38 | 0.38 | 61 | 1007.1 |
| 20260510021018 | 28 | 360 | 6.4 | 16.1 | 0.00 | 0.38 | 0.38 | 61 | 1007.1 |
| 20260510020518 | 28 | 360 | 6.4 | 16.1 | 0.00 | 0.38 | 0.38 | 61 | 1007.0 |
| 20260510020019 | 28 | 360 | 6.4 | 19.3 | 0.00 | 0.38 | 0.38 | 60 | 1006.9 |
| 20260510015518 | 28 | 360 | 6.4 | 19.3 | 0.00 | 0.38 | 0.38 | 60 | 1006.8 |
| 20260510015019 | 28 | 360 | 11.3 | 19.3 | 0.00 | 0.38 | 0.38 | 60 | 1006.7 |
| 20260510014519 | 28 | 360 | 8.0 | 17.7 | 0.00 | 0.38 | 0.38 | 59 | 1006.7 |
| 20260510014020 | 28 | 360 | 9.7 | 19.3 | 0.00 | 0.38 | 0.38 | 59 | 1006.7 |
| 20260510013518 | 29 | 360 | 4.8 | 20.9 | 0.00 | 0.38 | 0.38 | 59 | 1006.5 |
| 20260510013017 | 29 | 360 | 9.7 | 20.9 | 0.00 | 0.38 | 0.38 | 59 | 1006.4 |
| 20260510012517 | 29 | 360 | 11.3 | 20.9 | 0.00 | 0.38 | 0.38 | 59 | 1006.4 |
| 20260510012017 | 30 | 360 | 6.4 | 20.9 | 0.00 | 0.38 | 0.38 | 59 | 1006.3 |
| 20260510011523 | 30 | 159 | 6.4 | 17.7 | 0.00 | 0.38 | 0.38 | 59 | 1006.2 |
| 20260510011016 | 30 | 169 | 8.0 | 16.1 | 0.00 | 0.38 | 0.38 | 57 | 1006.1 |
| 20260510010516 | 30 | 165 | 6.4 | 14.5 | 0.00 | 0.38 | 0.38 | 56 | 1006.1 |
| 20260510010016 | 30 | 184 | 6.4 | 14.5 | 0.00 | 0.38 | 0.38 | 55 | 1006.0 |
| 20260510005516 | 30 | 169 | 6.4 | 16.1 | 0.00 | 0.38 | 0.38 | 55 | 1005.9 |
| 20260510005016 | 30 | 142 | 4.8 | 16.1 | 0.00 | 0.38 | 0.38 | 55 | 1005.9 |
| 20260510004516 | 31 | 190 | 4.8 | 9.7 | 0.00 | 0.38 | 0.38 | 55 | 1005.9 |
| 20260510004015 | 31 | 173 | 4.8 | 9.7 | 0.00 | 0.38 | 0.38 | 55 | 1005.8 |
| 20260510003515 | 31 | 173 | 3.2 | 17.7 | 0.00 | 0.38 | 0.38 | 55 | 1005.8 |
| 20260510003045 | 31 | 178 | 8.0 | 19.3 | 0.00 | 0.38 | 0.38 | 55 | 1005.6 |
| 20260510002518 | 31 | 158 | 9.7 | 17.7 | 0.00 | 0.38 | 0.38 | 54 | 1005.5 |
| 20260510002015 | 31 | 186 | 12.9 | 24.1 | 0.00 | 0.38 | 0.38 | 54 | 1005.4 |
| 20260510001516 | 31 | 187 | 12.9 | 24.1 | 0.00 | 0.38 | 0.38 | 54 | 1005.3 |
| 20260510001014 | 31 | 206 | 12.9 | 19.3 | 0.00 | 0.38 | 0.38 | 54 | 1005.3 |
| 20260510000513 | 31 | 360 | 9.7 | 16.1 | 0.00 | 0.38 | 0.38 | 53 | 1005.2 |
| 20260510000014 | 31 | 360 | 8.0 | 17.7 | 0.00 | 0.38 | 0.38 | 52 | 1005.2 |
| 20260509235513 | 31 | 219 | 8.0 | 14.5 | 0.00 | 0.38 | 0.38 | 52 | 1005.1 |
| 20260509235014 | 31 | 170 | 6.4 | 17.7 | 0.00 | 0.38 | 0.38 | 52 | 1005.3 |
| 20260509234523 | 31 | 162 | 8.0 | 17.7 | 0.00 | 0.38 | 0.38 | 52 | 1005.4 |
| 20260509234012 | 31 | 183 | 4.8 | 14.5 | 0.00 | 0.38 | 0.38 | 53 | 1005.5 |
| 20260509233511 | 31 | 208 | 9.7 | 14.5 | 0.00 | 0.38 | 0.38 | 52 | 1005.6 |
| 20260509233020 | 32 | 181 | 6.4 | 11.3 | 0.00 | 0.38 | 0.38 | 53 | 1005.7 |
| 20260509232512 | 31 | 178 | 3.2 | 11.3 | 0.00 | 0.38 | 0.38 | 53 | 1005.6 |
| 20260509232012 | 31 | 160 | 3.2 | 14.5 | 0.00 | 0.38 | 0.38 | 53 | 1005.7 |
| 20260509231511 | 31 | 145 | 4.8 | 16.1 | 0.00 | 0.38 | 0.38 | 53 | 1005.8 |
| 20260509231110 | 32 | 136 | 8.0 | 16.1 | 0.00 | 0.38 | 0.38 | 52 | 1005.6 |
| 20260509230510 | 32 | 240 | 3.2 | 17.7 | 0.00 | 0.38 | 0.38 | 53 | 1005.7 |
| 20260509230015 | 32 | 198 | 6.4 | 17.7 | 0.00 | 0.38 | 0.38 | 53 | 1005.6 |
| 20260509225510 | 32 | 170 | 4.8 | 14.5 | 0.00 | 0.38 | 0.38 | 53 | 1005.6 |
| 20260509225009 | 32 | 193 | 3.2 | 16.1 | 0.00 | 0.38 | 0.38 | 53 | 1005.5 |
| 20260509224510 | 31 | 174 | 4.8 | 16.1 | 0.00 | 0.38 | 0.38 | 54 | 1005.7 |
| 20260509224010 | 32 | 167 | 8.0 | 16.1 | 0.00 | 0.38 | 0.38 | 54 | 1005.7 |
| 20260509223510 | 32 | 194 | 4.8 | 17.7 | 0.00 | 0.38 | 0.38 | 53 | 1005.7 |
| 20260509223009 | 32 | 163 | 8.0 | 17.7 | 0.00 | 0.38 | 0.38 | 54 | 1005.5 |
| 20260509222508 | 31 | 263 | 3.2 | 14.5 | 0.00 | 0.38 | 0.38 | 54 | 1005.5 |
| 20260509222008 | 31 | 155 | 3.2 | 14.5 | 0.00 | 0.38 | 0.38 | 54 | 1005.6 |
| 20260509221508 | 31 | 154 | 1.6 | 12.9 | 0.00 | 0.38 | 0.38 | 53 | 1005.7 |
| 20260509221006 | 31 | 154 | 6.4 | 12.9 | 0.00 | 0.38 | 0.38 | 54 | 1005.6 |
| 20260509220506 | 31 | 165 | 4.8 | 12.9 | 0.00 | 0.38 | 0.38 | 53 | 1005.7 |
| 20260509220008 | 31 | 230 | 3.2 | 19.3 | 0.00 | 0.38 | 0.38 | 54 | 1005.6 |
| 20260509215507 | 31 | 244 | 14.5 | 19.3 | 0.00 | 0.38 | 0.38 | 54 | 1005.7 |
| 20260509215007 | 31 | 213 | 6.4 | 11.3 | 0.00 | 0.38 | 0.38 | 54 | 1005.7 |
| 20260509214508 | 31 | 360 | 0.0 | 17.7 | 0.00 | 0.38 | 0.38 | 55 | 1005.7 |
| 20260509214006 | 31 | 360 | 11.3 | 19.3 | 0.00 | 0.38 | 0.38 | 54 | 1005.8 |
| 20260509213505 | 31 | 360 | 11.3 | 22.5 | 0.00 | 0.38 | 0.38 | 54 | 1005.7 |
| 20260509213006 | 31 | 360 | 14.5 | 20.9 | 0.00 | 0.38 | 0.38 | 55 | 1005.8 |
| 20260509212505 | 31 | 360 | 3.2 | 12.9 | 0.00 | 0.38 | 0.38 | 54 | 1005.8 |
| 20260509212004 | 32 | 360 | 3.2 | 16.1 | 0.00 | 0.38 | 0.38 | 54 | 1005.9 |
| 20260509211503 | 31 | 175 | 6.4 | 20.9 | 0.00 | 0.38 | 0.38 | 54 | 1006.1 |
| 20260509211002 | 32 | 360 | 16.1 | 20.9 | 0.00 | 0.38 | 0.38 | 53 | 1006.1 |
| 20260509210504 | 31 | 245 | 4.8 | 17.7 | 0.00 | 0.38 | 0.38 | 53 | 1006.2 |
| 20260509210104 | 31 | 360 | 8.0 | 17.7 | 0.00 | 0.38 | 0.38 | 53 | 1006.2 |
| 20260509205559 | 31 | 192 | 8.0 | 17.7 | 0.00 | 0.38 | 0.38 | 53 | 1006.2 |
| 20260509205058 | 31 | 188 | 11.3 | 17.7 | 0.00 | 0.38 | 0.38 | 52 | 1006.4 |
| 20260509204557 | 31 | 163 | 6.4 | 24.1 | 0.00 | 0.38 | 0.38 | 53 | 1006.5 |
| 20260509204056 | 31 | 143 | 8.0 | 22.5 | 0.00 | 0.38 | 0.38 | 54 | 1006.6 |
| 20260509203555 | 31 | 196 | 8.0 | 22.5 | 0.00 | 0.38 | 0.38 | 55 | 1006.7 |
| 20260509203053 | 31 | 218 | 4.8 | 19.3 | 0.00 | 0.38 | 0.38 | 56 | 1006.7 |
| 20260509202555 | 31 | 204 | 14.5 | 19.3 | 0.00 | 0.38 | 0.38 | 56 | 1006.8 |
| 20260509202052 | 31 | 259 | 11.3 | 19.3 | 0.00 | 0.38 | 0.38 | 56 | 1006.9 |
| 20260509201552 | 31 | 360 | 11.3 | 22.5 | 0.00 | 0.38 | 0.38 | 55 | 1007.1 |
| 20260509201052 | 31 | 220 | 6.4 | 14.5 | 0.00 | 0.38 | 0.38 | 56 | 1007.1 |
| 20260509200551 | 31 | 225 | 8.0 | 14.5 | 0.00 | 0.38 | 0.38 | 56 | 1007.1 |
| 20260509200054 | 31 | 171 | 8.0 | 12.9 | 0.00 | 0.38 | 0.38 | 56 | 1007.3 |
| 20260509195546 | 30 | 279 | 4.8 | 14.5 | 0.00 | 0.38 | 0.38 | 59 | 1007.4 |
| 20260509195046 | 30 | 281 | 4.8 | 14.5 | 0.00 | 0.38 | 0.38 | 59 | 1007.5 |
| 20260509194545 | 30 | 265 | 4.8 | 16.1 | 0.00 | 0.38 | 0.38 | 59 | 1007.6 |
| 20260509194045 | 30 | 261 | 6.4 | 22.5 | 0.00 | 0.38 | 0.38 | 59 | 1007.7 |
| 20260509193544 | 30 | 239 | 4.8 | 22.5 | 0.00 | 0.38 | 0.38 | 58 | 1007.7 |
| 20260509193044 | 30 | 217 | 8.0 | 16.1 | 0.00 | 0.38 | 0.38 | 59 | 1007.8 |
| 20260509192546 | 30 | 310 | 1.6 | 17.7 | 0.00 | 0.38 | 0.38 | 60 | 1007.8 |
| 20260509192046 | 30 | 302 | 11.3 | 19.3 | 0.00 | 0.38 | 0.38 | 59 | 1007.9 |
| 20260509191544 | 30 | 202 | 11.3 | 19.3 | 0.00 | 0.38 | 0.38 | 57 | 1007.9 |
| 20260509191047 | 30 | 208 | 9.7 | 29.0 | 0.00 | 0.38 | 0.38 | 57 | 1007.9 |
| 20260509190543 | 30 | 244 | 12.9 | 29.0 | 0.00 | 0.38 | 0.38 | 57 | 1007.9 |
| 20260509190044 | 30 | 259 | 11.3 | 25.7 | 0.00 | 0.38 | 0.38 | 57 | 1008.0 |
| 20260509185542 | 30 | 285 | 12.9 | 25.7 | 0.00 | 0.38 | 0.38 | 58 | 1008.0 |
| 20260509185041 | 30 | 258 | 3.2 | 19.3 | 0.00 | 0.38 | 0.38 | 59 | 1008.1 |
| 20260509184539 | 29 | 236 | 9.7 | 24.1 | 0.00 | 0.38 | 0.38 | 58 | 1008.1 |
| 20260509184039 | 29 | 244 | 14.5 | 24.1 | 0.00 | 0.38 | 0.38 | 58 | 1008.2 |
| 20260509183542 | 29 | 257 | 9.7 | 19.3 | 0.00 | 0.38 | 0.38 | 59 | 1008.3 |
| 20260509183054 | 29 | 219 | 11.3 | 22.5 | 0.00 | 0.38 | 0.38 | 60 | 1008.3 |
| 20260509182537 | 29 | 217 | 3.2 | 25.7 | 0.00 | 0.38 | 0.38 | 60 | 1008.3 |
| 20260509182041 | 28 | 235 | 4.8 | 25.7 | 0.00 | 0.38 | 0.38 | 60 | 1008.3 |
| 20260509181545 | 28 | 210 | 12.9 | 19.3 | 0.00 | 0.38 | 0.38 | 61 | 1008.4 |
| 20260509181035 | 28 | 279 | 11.3 | 17.7 | 0.00 | 0.38 | 0.38 | 62 | 1008.5 |
| 20260509180534 | 28 | 241 | 6.4 | 16.1 | 0.00 | 0.38 | 0.38 | 62 | 1008.6 |
| 20260509180034 | 28 | 232 | 9.7 | 27.4 | 0.00 | 0.38 | 0.38 | 64 | 1008.6 |
| 20260509175533 | 28 | 226 | 14.5 | 25.7 | 0.00 | 0.38 | 0.38 | 64 | 1008.6 |
| 20260509175031 | 28 | 248 | 9.7 | 24.1 | 0.00 | 0.38 | 0.38 | 64 | 1008.8 |
| 20260509174532 | 27 | 261 | 11.3 | 24.1 | 0.00 | 0.38 | 0.38 | 65 | 1008.8 |
| 20260509174030 | 27 | 277 | 14.5 | 20.9 | 0.00 | 0.38 | 0.38 | 65 | 1008.8 |
| 20260509173529 | 27 | 246 | 9.7 | 16.1 | 0.00 | 0.38 | 0.38 | 67 | 1008.9 |
| 20260509173027 | 27 | 273 | 4.8 | 14.5 | 0.00 | 0.38 | 0.38 | 69 | 1008.9 |
| 20260509172526 | 27 | 230 | 8.0 | 17.7 | 0.00 | 0.38 | 0.38 | 69 | 1008.9 |
| 20260509172025 | 27 | 253 | 11.3 | 17.7 | 0.00 | 0.38 | 0.38 | 70 | 1009.1 |
| 20260509171525 | 26 | 285 | 12.9 | 17.7 | 0.00 | 0.38 | 0.38 | 70 | 1009.1 |
| 20260509171021 | 26 | 232 | 8.0 | 17.7 | 0.00 | 0.38 | 0.38 | 72 | 1009.1 |
| 20260509170521 | 26 | 289 | 6.4 | 17.7 | 0.00 | 0.38 | 0.38 | 72 | 1009.1 |
| 20260509170020 | 26 | 279 | 9.7 | 16.1 | 0.00 | 0.38 | 0.38 | 73 | 1009.1 |
| 20260509165519 | 26 | 272 | 8.0 | 19.3 | 0.00 | 0.38 | 0.38 | 75 | 1009.2 |
| 20260509165017 | 26 | 238 | 9.7 | 17.7 | 0.00 | 0.38 | 0.38 | 76 | 1009.2 |